Wind_Speed
28 24 22 17 12 12 4 8 10 5 5 9 14 16 17 17 22 25 28 29 27 33 35 40 43 47 49 51 53 53 55 52 59 61 67 69 69 68 70 69 70 68 71 72 73 71 73 72 74
30 28 26 19 17 16 16 11 9 8 10 12 15 17 19 20 24 25 27 30 29 33 36 40 45 50 51 53 54 56 56 57 61 66 70 72 74 72 73 73 72 73 75 76 77 78 79 79 80
33 30 26 22 19 18 19 13 12 11 12 13 18 20 23 24 23 27 31 31 32 36 39 42 48 51 53 55 57 59 57 61 66 69 73 74 76 76 76 75 75 77 78 80 78 83 85 85 86
36 32 27 24 19 20 23 19 16 16 14 15 16 22 25 27 29 31 32 34 35 39 44 46 51 55 58 59 60 61 61 67 71 74 75 77 79 79 80 79 80 80 83 79 81 89 88 90 90
36 33 30 26 9 19 25 22 21 19 20 20 18 23 26 29 31 38 36 38 40 43 47 51 53 57 60 61 64 60 68 72 75 76 78 80 81 83 84 85 83 87 85 85 87 93 93 94 97
37 36 33 29 28 26 25 25 24 22 20 21 23 26 29 32 35 40 40 40 45 49 49 54 56 58 62 63 66 67 72 77 79 80 81 83 83 85 88 88 88 89 87 87 91 97 97 97 101
37 37 34 31 24 29 30 27 26 26 24 27 25 28 32 36 38 40 40 43 47 49 53 55 59 60 63 67 67 68 77 82 81 82 84 87 88 91 92 92 93 92 93 93 95 100 102 103 104
37 40 38 35 31 32 29 30 30 29 28 28 32 33 35 38 41 44 46 48 51 53 55 61 60 64 67 68 69 77 82 86 86 87 89 91 94 97 96 96 97 96 97 98 99 101 108 107 107
42 41 39 36 28 38 31 35 32 32 31 32 34 37 38 41 43 48 52 53 56 57 60 62 62 65 68 72 78 82 83 87 89 90 93 95 98 99 99 100 99 98 98 101 103 105 110 110 108
45 44 39 34 35 34 34 37 31 33 34 34 37 41 43 45 48 52 56 58 59 62 63 66 66 70 75 78 83 84 87 88 92 94 97 100 101 101 103 105 103 102 103 106 109 112 113 114 109
46 46 41 37 39 36 35 40 33 34 38 40 41 44 46 49 52 54 55 58 64 66 68 68 74 78 81 84 85 87 89 92 95 98 101 103 105 106 108 107 107 106 109 112 113 118 116 115 111
47 46 42 42 41 39 38 39 39 36 40 45 45 47 51 52 54 52 58 65 68 70 70 74 81 82 81 84 90 92 96 98 100 103 104 107 108 110 111 110 110 111 114 114 119 119 118 117 114
48 43 49 47 44 44 42 43 42 41 45 46 49 51 53 55 57 55 60 65 70 70 76 81 81 82 90 92 96 99 101 103 104 107 108 110 111 113 113 113 112 115 117 120 121 122 118 120 115
55 50 50 52 48 50 46 46 47 45 52 50 53 54 56 58 60 60 64 69 74 78 79 83 85 90 96 96 100 102 103 106 108 110 112 113 115 114 115 116 119 120 121 125 124 122 121 119 119
55 55 54 58 52 52 50 49 50 50 55 54 54 58 60 62 63 65 67 72 76 82 83 87 91 92 93 99 102 102 106 110 111 114 115 117 117 117 118 120 122 124 127 126 124 124 123 120 122
57 59 60 60 54 57 56 56 52 55 58 59 57 60 63 65 66 69 69 73 78 82 85 88 90 96 102 102 101 106 112 113 114 117 119 120 119 120 122 124 127 128 127 124 126 124 123 122 118
62 65 62 60 57 58 60 58 59 58 58 60 64 65 65 68 72 76 75 78 82 86 91 93 96 100 100 105 109 111 113 115 115 116 119 120 121 124 126 129 129 130 129 128 125 124 120 118 117
67 67 63 60 60 59 59 57 60 61 60 65 69 69 68 69 76 81 82 84 86 90 93 97 101 104 108 110 113 115 117 118 119 119 119 122 126 128 131 131 133 130 129 124 126 122 117 114 113
70 70 65 63 65 63 63 61 65 67 66 69 70 73 73 75 80 85 89 90 90 94 97 101 105 109 111 114 116 118 120 121 121 120 123 126 129 131 134 133 131 127 123 126 126 120 118 112 109
71 70 66 73 68 66 65 66 68 69 70 69 72 76 80 78 80 87 92 94 94 99 102 105 110 111 112 115 118 121 122 120 121 124 126 128 130 131 132 128 126 125 124 124 123 120 116 111 101
72 71 74 75 73 69 71 68 71 80 75 72 75 80 83 82 84 89 94 96 98 102 106 107 110 113 115 118 121 123 123 123 126 128 131 132 131 130 127 126 125 125 125 123 120 118 111 106 98
75 75 76 78 79 75 75 70 71 78 82 81 84 87 87 87 88 93 96 97 100 103 105 107 111 115 118 121 122 122 123 125 128 130 132 131 127 126 125 125 124 124 123 121 121 115 108 99 89
80 78 78 79 78 78 77 85 74 83 82 86 89 92 92 93 95 98 98 100 104 107 109 110 114 117 120 120 121 122 126 127 129 129 128 125 125 124 125 125 123 122 121 121 118 110 101 92 83
81 80 79 79 82 79 83 88 82 87 88 90 91 94 96 97 99 100 101 103 104 107 108 112 116 117 117 118 121 124 126 127 127 125 124 125 125 125 124 123 121 120 120 118 113 103 94 87 76
82 81 81 81 84 82 87 87 92 91 92 91 94 97 100 101 101 101 102 103 106 110 111 114 115 114 117 119 121 124 123 123 121 122 123 123 125 119 118 118 117 118 119 113 105 96 90 81 71
82 85 87 86 87 85 86 91 91 94 95 95 97 101 103 102 103 104 104 106 109 111 111 112 112 115 117 118 120 120 120 120 123 123 122 121 121 117 115 115 116 117 114 106 97 91 84 74 68
86 88 89 90 89 88 86 91 94 95 95 96 99 103 105 105 105 107 108 109 109 109 109 111 113 112 116 115 114 114 118 121 120 120 119 118 116 114 114 114 115 116 108 100 94 88 80 71 63
88 91 91 93 91 90 88 89 97 96 96 97 100 103 104 104 106 107 105 104 104 107 109 109 110 113 111 110 112 116 117 117 117 117 113 111 112 111 112 113 114 110 103 97 90 84 75 67 57
86 93 94 93 93 94 95 93 100 99 98 96 98 101 101 101 99 97 98 101 103 104 107 109 107 106 106 110 112 113 115 113 112 111 108 109 111 114 111 113 111 105 100 94 87 79 70 60 51
72 78 83 87 89 93 94 89 93 94 93 89 90 90 88 90 93 94 97 98 99 103 102 102 103 104 107 107 110 109 110 106 104 103 104 108 112 112 110 111 107 103 96 90 82 73 63 54 44
Wind_Direction
217 224 228 233 226 225 258 265 271 306 335 324 327 336 336 332 334 337 333 329 336 338 335 334 331 331 333 334 334 333 332 332 332 332 333 335 334 334 333 332 330 330 330 327 326 328 327 325 324
216 223 229 227 221 235 240 238 265 283 288 303 321 322 327 324 324 322 330 329 330 336 334 330 330 331 330 330 330 330 327 329 331 331 331 333 333 332 332 331 330 329 329 326 327 328 327 325 326
220 227 232 236 236 246 248 247 258 273 297 314 319 323 326 329 319 321 320 324 327 328 329 329 331 331 330 328 327 327 325 330 330 329 328 331 331 331 331 330 329 328 328 326 330 328 327 325 327
225 232 235 236 262 254 264 250 256 272 284 295 312 318 322 324 323 324 321 319 323 326 329 328 326 330 329 327 326 324 325 328 327 327 328 328 329 329 330 330 328 327 325 326 328 327 326 326 326
229 234 235 232 208 242 258 252 262 270 290 300 306 311 314 320 321 321 313 316 322 324 326 326 326 327 326 326 325 319 324 325 325 326 327 327 328 328 329 329 327 325 325 326 327 327 326 325 325
231 235 235 235 244 253 261 258 262 272 288 294 302 309 312 313 318 324 315 316 320 323 324 324 323 324 324 323 322 319 321 323 324 326 326 326 327 327 328 327 325 325 325 325 325 326 325 324 324
230 233 237 242 235 250 259 260 264 272 286 294 294 299 306 308 316 322 320 320 321 321 321 320 320 319 321 321 319 317 320 322 323 324 325 325 326 327 327 326 325 326 324 324 325 326 324 323 325
228 234 239 244 245 253 255 261 266 274 285 291 299 304 303 309 314 318 320 321 319 319 318 320 318 319 321 321 318 319 321 321 323 324 325 325 326 326 326 325 325 325 325 325 324 326 325 322 324
230 236 243 251 249 250 262 265 267 276 288 292 298 301 305 309 313 317 319 318 318 316 317 317 315 315 316 315 317 319 320 320 321 322 324 325 325 325 325 324 324 324 325 325 322 323 324 323 323
235 240 245 253 255 259 262 265 272 284 286 292 299 302 305 309 313 316 316 315 315 314 317 317 315 313 312 313 316 319 320 321 321 322 323 324 324 324 323 324 324 324 325 324 322 321 323 322 321
239 247 250 252 259 262 265 272 276 286 288 293 296 301 303 307 311 314 314 311 311 313 313 312 314 314 313 314 317 319 319 321 321 322 323 324 323 323 323 324 323 324 325 324 321 323 322 322 319
240 247 252 253 257 260 262 267 275 281 285 293 299 300 303 307 307 313 308 309 310 310 310 311 313 313 316 316 317 318 320 320 321 321 322 322 323 322 322 322 323 323 323 322 322 321 322 320 319
243 248 249 253 254 255 259 269 275 283 285 290 294 298 301 302 307 308 305 309 310 308 312 313 312 314 317 317 317 318 319 319 320 320 321 321 322 321 321 322 322 324 322 320 321 322 320 319 319
241 244 249 253 255 258 263 268 276 281 284 289 293 297 299 302 304 304 305 308 307 309 311 308 311 312 313 314 315 316 317 318 319 319 320 321 320 320 321 321 322 321 321 322 321 321 320 320 318
242 246 247 252 255 260 265 269 277 279 286 291 295 296 298 300 303 304 306 306 306 304 306 309 310 309 312 313 313 315 315 317 318 319 320 320 320 320 320 321 321 322 321 321 321 320 320 320 319
241 246 247 252 257 261 265 269 275 280 286 291 292 291 296 297 299 300 303 304 305 307 308 310 312 312 313 312 313 315 316 318 318 320 319 319 319 319 320 321 321 320 321 321 320 320 320 320 319
243 245 249 253 257 262 267 271 275 280 286 286 287 289 293 297 298 298 300 301 304 306 309 310 310 311 311 312 315 314 316 316 317 317 317 318 318 319 320 320 320 320 321 321 319 322 321 320 319
246 248 251 253 257 261 268 274 278 276 278 282 287 290 294 296 297 297 299 300 305 306 307 308 309 311 313 314 313 315 316 316 316 317 318 318 319 320 320 320 320 320 321 321 320 322 322 321 320
247 252 255 260 261 261 266 270 271 278 281 285 289 292 294 295 295 296 298 300 303 305 306 309 310 310 312 313 314 315 315 316 317 318 318 319 319 320 319 319 320 321 321 320 322 323 321 322 321
249 254 258 260 262 266 270 270 275 276 278 282 287 291 291 292 293 295 298 302 303 305 305 308 309 310 312 313 313 315 315 317 317 317 318 319 319 319 319 320 321 321 322 322 322 322 323 322 321
250 255 257 261 264 265 267 272 277 281 281 284 285 287 289 292 296 298 299 301 303 303 304 306 308 311 312 312 314 314 316 316 318 318 319 319 319 319 320 320 321 322 322 323 323 323 323 323 320
250 254 258 263 267 269 271 272 277 279 286 290 289 289 292 295 296 297 298 300 302 303 305 308 310 311 312 313 314 314 316 318 317 317 318 318 320 320 321 320 322 323 323 323 324 325 324 321 319
248 252 257 262 267 271 278 277 277 280 281 282 285 288 290 292 293 295 298 300 302 304 308 310 309 310 312 313 313 315 316 315 316 316 318 319 319 319 320 322 322 323 323 324 326 325 323 322 321
252 255 257 262 267 270 271 276 276 278 281 283 287 289 291 293 294 298 301 303 305 305 307 308 309 311 311 313 314 315 314 315 315 317 318 319 320 322 322 322 323 323 324 326 327 325 324 323 323
252 256 259 262 265 267 272 274 278 279 281 283 286 287 289 291 295 298 300 302 304 305 307 308 309 310 312 313 313 314 315 314 316 318 318 320 323 323 322 322 324 324 326 327 327 327 326 325 327
253 256 258 260 264 268 273 275 276 280 283 286 287 288 291 296 298 299 302 305 305 307 308 308 310 310 311 312 313 312 313 315 317 318 321 322 323 323 323 324 324 325 329 329 329 329 327 328 326
253 256 260 263 265 267 270 275 278 281 285 288 289 292 294 298 299 301 303 305 307 307 308 308 309 310 311 311 312 313 313 316 318 321 321 323 323 323 325 324 324 328 330 331 331 329 328 330 327
256 261 262 263 264 268 272 275 278 281 283 287 291 293 296 298 299 302 305 306 305 306 307 307 308 309 310 311 312 312 315 317 320 321 322 323 324 324 325 324 328 331 332 332 331 330 331 329 328
256 258 263 267 271 272 272 274 277 280 282 286 291 293 294 297 300 302 305 305 305 305 306 307 309 311 311 311 311 314 316 319 319 321 321 323 325 325 324 326 331 332 333 333 332 331 331 331 329
261 263 264 266 269 274 276 278 281 283 286 288 291 293 296 300 303 303 302 304 304 305 308 309 310 311 310 310 313 314 316 317 321 320 322 325 326 326 324 329 333 334 334 333 331 333 332 332 332
Height
10929 10931 10933 10934 10937 10937 10937 10939 10938 10937 10936 10936 10935 10934 10933 10931 10929 10927 10922 10920 10920 10915 10912 10909 10905 10901 10896 10892 10887 10882 10876 10871 10866 10859 10852 10846 10839 10832 10824 10817 10809 10802 10795 10788 10779 10771 10764 10757 10749
10926 10927 10929 10931 10933 10935 10934 10935 10935 10934 10934 10934 10932 10931 10930 10928 10926 10925 10923 10916 10916 10912 10909 10904 10900 10896 10890 10885 10880 10874 10869 10863 10856 10849 10843 10836 10828 10820 10812 10805 10795 10788 10781 10773 10764 10756 10747 10740 10732
10923 10925 10928 10931 10933 10934 10931 10933 10933 10932 10931 10930 10928 10928 10926 10926 10923 10921 10919 10916 10912 10908 10904 10900 10896 10890 10885 10879 10873 10867 10860 10853 10847 10842 10835 10828 10819 10810 10802 10793 10784 10775 10766 10757 10749 10740 10731 10721 10712
10921 10924 10927 10930 10933 10930 10929 10930 10931 10930 10930 10929 10927 10925 10923 10921 10919 10917 10914 10910 10907 10904 10899 10895 10889 10883 10878 10872 10865 10859 10852 10846 10839 10832 10824 10816 10808 10798 10789 10781 10772 10764 10754 10744 10735 10725 10715 10705 10695
10918 10921 10923 10926 10927 10922 10926 10926 10927 10928 10926 10924 10925 10923 10920 10918 10916 10913 10911 10906 10901 10899 10893 10888 10882 10876 10870 10864 10857 10850 10844 10838 10830 10822 10813 10804 10795 10785 10775 10766 10758 10748 10737 10727 10716 10705 10696 10687 10676
10916 10917 10918 10922 10922 10921 10922 10922 10922 10922 10924 10921 10919 10918 10917 10915 10912 10909 10905 10902 10895 10890 10887 10880 10873 10868 10862 10855 10849 10841 10834 10826 10819 10809 10801 10793 10784 10774 10764 10754 10744 10733 10723 10712 10700 10689 10678 10666 10655
10912 10912 10915 10920 10922 10919 10921 10921 10920 10919 10920 10915 10917 10916 10914 10910 10907 10904 10900 10896 10892 10884 10876 10873 10867 10860 10856 10849 10841 10832 10822 10813 10808 10797 10788 10778 10769 10758 10748 10737 10724 10714 10702 10692 10680 10667 10654 10643 10631
10907 10908 10912 10914 10917 10913 10916 10916 10917 10916 10916 10914 10909 10910 10907 10905 10902 10898 10894 10889 10884 10878 10872 10863 10856 10849 10842 10835 10826 10819 10810 10798 10790 10782 10773 10762 10752 10741 10731 10720 10707 10695 10683 10671 10658 10647 10633 10618 10606
10902 10904 10909 10912 10919 10913 10914 10912 10915 10913 10911 10909 10907 10905 10903 10900 10896 10891 10886 10882 10875 10870 10864 10858 10851 10843 10835 10827 10818 10809 10802 10788 10776 10770 10759 10747 10736 10724 10712 10702 10690 10677 10665 10653 10639 10626 10613 10598 10583
10897 10900 10908 10911 10908 10908 10910 10907 10912 10909 10906 10905 10903 10899 10897 10894 10891 10886 10879 10874 10868 10859 10856 10848 10842 10834 10826 10818 10809 10800 10789 10779 10762 10753 10743 10731 10720 10707 10695 10682 10669 10656 10643 10630 10617 10603 10590 10575 10559
10894 10895 10904 10907 10903 10906 10906 10901 10907 10904 10899 10898 10898 10894 10891 10888 10884 10881 10873 10865 10859 10851 10843 10838 10832 10824 10816 10805 10795 10788 10775 10765 10751 10737 10728 10715 10702 10690 10675 10662 10648 10635 10620 10606 10592 10578 10565 10550 10536
10892 10893 10898 10899 10900 10901 10900 10898 10899 10901 10896 10889 10889 10887 10884 10879 10876 10873 10867 10859 10850 10845 10837 10827 10820 10811 10803 10793 10782 10773 10762 10750 10738 10722 10712 10697 10684 10671 10658 10644 10629 10615 10601 10585 10570 10554 10539 10525 10509
10889 10895 10888 10891 10894 10895 10895 10893 10894 10895 10889 10888 10885 10882 10878 10872 10867 10864 10859 10852 10844 10837 10828 10819 10809 10800 10789 10780 10768 10758 10746 10734 10722 10706 10696 10680 10668 10654 10638 10624 10610 10596 10581 10565 10548 10532 10516 10498 10480
10879 10885 10886 10882 10888 10885 10890 10888 10889 10889 10880 10882 10879 10876 10871 10865 10858 10854 10850 10842 10832 10824 10819 10807 10798 10788 10777 10768 10755 10743 10731 10718 10706 10690 10678 10663 10648 10634 10619 10604 10590 10576 10560 10544 10527 10509 10492 10472 10453
10877 10877 10879 10871 10882 10880 10883 10882 10883 10880 10874 10874 10871 10867 10863 10858 10849 10843 10842 10835 10823 10812 10807 10794 10784 10774 10765 10753 10742 10728 10715 10703 10688 10671 10657 10644 10628 10613 10599 10585 10570 10555 10537 10518 10501 10482 10465 10447 10426
10870 10868 10868 10869 10877 10873 10874 10874 10878 10872 10869 10866 10864 10860 10855 10849 10839 10832 10832 10825 10813 10801 10793 10783 10771 10758 10747 10736 10725 10712 10700 10684 10669 10652 10635 10622 10608 10594 10579 10565 10547 10529 10511 10492 10474 10460 10439 10420 10399
10859 10857 10862 10868 10870 10867 10865 10868 10866 10868 10865 10859 10852 10852 10849 10841 10830 10820 10820 10813 10803 10790 10778 10769 10759 10748 10734 10720 10707 10697 10685 10670 10657 10642 10622 10604 10590 10574 10557 10541 10522 10504 10488 10469 10448 10433 10418 10395 10370
10847 10850 10856 10861 10864 10864 10858 10861 10858 10856 10857 10850 10843 10842 10841 10836 10819 10808 10806 10800 10790 10778 10766 10753 10743 10731 10717 10702 10690 10676 10663 10649 10635 10621 10604 10584 10567 10550 10531 10516 10497 10479 10462 10442 10420 10405 10387 10373 10347
10841 10842 10850 10852 10853 10857 10854 10853 10846 10846 10846 10841 10836 10829 10829 10824 10811 10797 10788 10785 10777 10762 10753 10742 10727 10715 10703 10686 10672 10657 10642 10626 10611 10598 10582 10566 10547 10529 10507 10491 10472 10454 10437 10418 10397 10379 10360 10343 10322
10836 10838 10845 10836 10844 10847 10845 10841 10838 10837 10836 10835 10829 10820 10813 10814 10802 10788 10776 10768 10761 10748 10739 10728 10711 10697 10686 10671 10654 10638 10622 10608 10592 10579 10562 10548 10529 10508 10486 10468 10448 10430 10413 10393 10374 10353 10331 10312 10300
10832 10834 10830 10829 10832 10838 10834 10838 10829 10811 10821 10826 10818 10807 10801 10801 10792 10778 10767 10758 10749 10734 10724 10714 10696 10682 10669 10652 10636 10618 10603 10589 10571 10554 10536 10519 10502 10483 10463 10445 10425 10406 10387 10368 10349 10329 10308 10285 10265
10824 10824 10823 10820 10815 10824 10822 10830 10824 10810 10803 10803 10793 10787 10787 10785 10780 10768 10758 10749 10736 10722 10709 10699 10683 10667 10650 10634 10618 10603 10587 10570 10552 10535 10517 10500 10483 10461 10443 10423 10405 10384 10363 10343 10323 10303 10281 10262 10244
10810 10814 10813 10812 10813 10813 10814 10798 10818 10799 10800 10789 10782 10775 10774 10770 10762 10754 10746 10736 10723 10708 10695 10683 10665 10651 10636 10618 10601 10586 10569 10551 10533 10515 10498 10480 10461 10442 10422 10401 10383 10363 10341 10320 10298 10277 10256 10237 10221
10804 10806 10806 10807 10802 10808 10799 10786 10798 10786 10782 10778 10772 10764 10756 10751 10744 10738 10730 10719 10707 10692 10682 10667 10650 10636 10620 10604 10586 10569 10551 10534 10516 10498 10481 10461 10441 10421 10399 10380 10360 10339 10319 10299 10275 10253 10233 10215 10201
10795 10797 10798 10797 10790 10796 10784 10781 10767 10768 10766 10768 10760 10749 10742 10736 10731 10724 10716 10706 10693 10676 10666 10647 10632 10618 10602 10587 10569 10551 10534 10517 10501 10485 10465 10444 10423 10402 10380 10360 10340 10320 10299 10278 10255 10233 10213 10196 10183
10786 10782 10780 10781 10779 10782 10777 10766 10763 10756 10751 10749 10742 10732 10725 10722 10715 10706 10698 10688 10673 10657 10646 10629 10615 10601 10583 10570 10553 10534 10517 10501 10485 10465 10446 10426 10405 10385 10365 10344 10322 10302 10280 10257 10234 10214 10196 10181 10167
10771 10767 10766 10765 10766 10768 10771 10756 10748 10746 10742 10734 10725 10718 10710 10706 10696 10688 10680 10667 10652 10637 10625 10612 10599 10583 10568 10553 10538 10520 10501 10486 10468 10449 10430 10410 10389 10369 10348 10326 10304 10284 10261 10239 10217 10198 10179 10166 10153
10757 10752 10754 10749 10756 10757 10758 10750 10731 10733 10732 10727 10718 10706 10700 10691 10679 10671 10662 10650 10635 10620 10608 10596 10582 10568 10554 10535 10520 10503 10487 10469 10452 10432 10414 10395 10376 10355 10332 10310 10290 10266 10244 10222 10203 10183 10167 10153 10142
10746 10739 10739 10743 10739 10738 10738 10740 10722 10723 10724 10724 10713 10696 10688 10679 10670 10660 10648 10634 10620 10604 10591 10580 10567 10552 10537 10520 10502 10486 10469 10455 10437 10419 10399 10381 10362 10341 10317 10296 10275 10251 10228 10208 10188 10171 10156 10144 10132
10732 10733 10731 10731 10729 10721 10717 10723 10711 10707 10710 10713 10699 10685 10677 10668 10658 10647 10632 10620 10605 10589 10576 10565 10551 10536 10520 10503 10487 10471 10456 10439 10423 10405 10386 10367 10346 10326 10303 10284 10260 10238 10215 10196 10177 10162 10147 10134 10124